TITAN 3C TRANSTAGE DEB, 33510

Orbit data source: Space-Track

TITAN 3C TRANSTAGE DEB, 33510 is space debris in GEO originally from a launch on Thu, 26 Sep 1968 UTC launched from the Air Force Eastern Test Range (AFETR). Debris objects in space refer to the collection of defunct objects orbiting the Earth. Examples of debris include non-operational satellites, rocket bodies, and fragments generated from explosions, collisions, or faulty payload assembly.

Not visible in the next 10 days
Identifier
33510, 1968-081L
Orbit
GEO
Country
Flag of USUS
Related business
Manufacturer
Unknown
Mission
Spacecraft
Bus & Motor
Unknown
Mass
Unknown
Launch date (UTC)
1968-09-26 (57 years ago)
Launch vehicle
Unknown
Launch site
Air Force Eastern Test Range (AFETR)
Object type
Payload
Rocket body
Debris
Shape & HBR
Unknown shape, 1.1 m
Radar Cross Section
Medium (>0.1 m² and <1 m²)

Expand to show TLE details & history
Last TLE update: 21 hours ago

TLE from 21 hours ago
0 TITAN 3C TRANSTAGE DEB
1 33510U 68081L   25291.77747172 -.00000137  00000-0  00000-0 0  9998
2 33510   1.5378  46.6654 0062582 295.6331  13.6025  1.01837115  4650
Epoch: 2025-10-18T18:39Z
TLE epoch observation values (Epoch: 2025-10-18T18:39:33.556Z)
Latitude
-1.17329°
Longitude
48.66205°
Altitude
35,098.656 km
Speed
3.11 km/s
True Right ascension
23h 44m 13s
True Declination
-1° 10' 19"
Sunlit
Object was in daylight at epoch
Visualization orbit readout
Latitude
Unknown
Longitude
Unknown
Altitude
Unknown
Speed
Unknown
Apparent Right ascension
Unknown
Apparent Declination
Unknown
Sunlit
N/A
Visualization observer readout
Local Sidereal Time
10:36:55
Azimuth
Unknown
Elevation
Unknown
Doppler factor
Unknown
Orbital elements
Apogee altitude
35,615.658 km
Perigee altitude
35,093.315 km
Semi-major axis
41,732.624 km
Eccentricity
0.00626
Inclination
1.5378°
RAAN
46.6654°
Arg. of periapsis
295.6331°
True anomaly
13.77245°
Mean anomaly
13.6025°
Eccentric anomaly
13.68735°
Mean motion
0.25458 °/min
Orbital period
1,414.08 mins
BSTAR
0
Loading maneuver chart data...
Computing Atmospheric mass density...

Documentation

Showing up to 5 results
|